W5PDB Weather Reports


Display with metric or nautical units.
time (UTC)temp
F
wind
direction
speed
MPH
gust
MPH
rain 1hr
in
rain 24hr
in
rain mn
in
humidity
%
barometer
mb
20260507062205 54 0 0.0 0.0 0.00 0.00 0.00 15 1025.6
20260507061205 54 0 0.0 0.0 0.00 0.00 0.00 15 1025.6
20260507053205 55 0 0.0 0.0 0.00 0.00 0.00 15 1025.5
20260507050205 56 0 0.0 0.0 0.00 0.00 0.04 15 1026.4
20260507045206 56 0 0.0 0.0 0.00 0.00 0.04 15 1026.4
20260507040206 57 68 0.0 4.0 0.00 0.00 0.04 15 1024.3
20260507033205 57 338 1.0 4.0 0.00 0.00 0.04 15 1023.2
20260507031205 57 45 0.0 4.0 0.00 0.00 0.04 14 1023.2
20260507025206 58 22 1.0 3.0 0.00 0.00 0.04 14 1023.1
20260507024205 58 22 1.0 4.0 0.00 0.00 0.04 14 1024.2
20260507020205 59 68 2.0 2.0 0.00 0.00 0.04 14 1024.1
20260507014204 60 45 0.0 3.0 0.00 0.00 0.04 14 1023.0
20260506225205 65 22 0.0 4.0 0.00 0.00 0.04 13 1022.5
20260506224205 65 68 3.0 4.0 0.00 0.00 0.04 13 1021.4
20260506223206 66 45 0.0 6.0 0.00 0.00 0.04 13 1021.4
20260506222205 66 68 2.0 5.0 0.00 0.00 0.04 13 1021.4
20260506221204 66 112 0.0 9.0 0.00 0.00 0.04 12 1021.3
20260506220205 66 22 3.0 9.0 0.00 0.00 0.04 12 1021.3
20260506215205 67 45 2.0 7.0 0.00 0.00 0.04 12 1021.3
20260506214204 67 45 0.0 7.0 0.00 0.00 0.04 12 1021.3
20260506212205 67 112 0.0 8.0 0.00 0.00 0.04 12 1021.2
20260506210205 67 45 6.0 9.0 0.00 0.00 0.04 12 1021.3
20260506205206 67 22 4.0 9.0 0.00 0.00 0.04 12 1021.3
20260506204205 68 22 2.0 6.0 0.00 0.00 0.04 12 1021.2
20260506203205 68 45 4.0 8.0 0.00 0.00 0.04 12 1021.2
20260506202205 67 338 5.0 9.0 0.00 0.00 0.04 12 1021.2
20260506201204 68 45 5.0 8.0 0.00 0.00 0.04 12 1022.3
20260506200206 68 45 6.0 11.0 0.00 0.00 0.04 12 1022.2
20260506195205 66 68 3.0 11.0 0.00 0.00 0.04 12 1022.4
20260506194205 67 68 6.0 8.0 0.00 0.00 0.04 12 1022.4
20260506193205 67 90 4.0 8.0 0.00 0.00 0.04 12 1022.3
20260506192205 67 338 5.0 8.0 0.00 0.00 0.04 12 1022.3
20260506190206 67 68 7.0 12.0 0.00 0.00 0.04 12 1022.4
20260506184205 65 22 5.0 8.0 0.00 0.00 0.04 13 1023.6
20260506183205 65 68 4.0 6.0 0.00 0.00 0.04 13 1023.5
20260506182206 65 90 2.0 10.0 0.00 0.00 0.04 13 1023.5
20260506175205 65 22 5.0 8.0 0.00 0.00 0.04 13 1023.5
20260506174206 65 68 5.0 13.0 0.00 0.00 0.04 13 1023.5
20260506173205 64 22 5.0 13.0 0.00 0.00 0.04 13 1024.7
20260506172205 63 68 6.0 11.0 0.00 0.00 0.04 13 1024.7
20260506170205 62 22 6.0 7.0 0.00 0.00 0.04 14 1023.8
20260506165206 61 0.0 0.0 0.00 0.00 0.04 14 1023.9
20260506164205 62 0.0 0.0 0.00 0.00 0.04 14 1023.8
20260506163205 61 0.0 0.0 0.00 0.00 0.04 14 1023.9
20260506162205 60 0.0 0.0 0.00 0.00 0.04 14 1024.0
20260506161205 59 0.0 0.0 0.00 0.00 0.04 14 1023.0
20260506155205 59 68 5.0 5.0 0.00 0.00 0.04 14 1023.0
20260506154205 58 68 5.0 5.0 0.00 0.00 0.04 14 1023.1
20260506153205 58 0.0 0.0 0.00 0.00 0.04 14 1024.2
20260506152205 57 0.0 0.0 0.00 0.00 0.04 14 1024.2
20260506151205 57 0.0 0.0 0.00 0.00 0.04 15 1024.3
20260506150206 56 0.0 4.0 0.00 0.00 0.04 15 1023.3
20260506145206 55 45 5.0 4.0 0.00 0.00 0.04 15 1023.3
20260506144205 54 45 5.0 4.0 0.00 0.00 0.04 15 1024.5
20260506143205 53 0.0 0.0 0.00 0.00 0.04 16 1024.6
20260506142205 52 0.0 0.0 0.00 0.00 0.04 16 1024.7
20260506140205 51 0.0 0.0 0.00 0.00 0.04 16 1023.7
20260506135205 50 0.0 0.0 0.00 0.00 0.04 16 1023.8
20260506134205 49 0.0 0.0 0.00 0.00 0.04 16 1024.9
20260506133205 49 0.0 0.0 0.00 0.00 0.04 16 1023.9
20260506132205 49 0.0 3.0 0.00 0.00 0.04 16 1023.9
20260506131206 49 22 3.0 3.0 0.00 0.00 0.04 19 1024.0
20260506130205 48 22 3.0 0.0 0.00 0.00 0.04 19 1024.0
20260506124206 48 0.0 0.0 0.00 0.00 0.04 17 1025.1
20260506123204 47 0.0 0.0 0.00 0.00 0.04 17 1024.1
20260506122204 47 0.0 0.0 0.00 0.00 0.04 17 1024.1
20260506121205 47 0.0 0.0 0.00 0.00 0.04 17 1024.1
20260506120205 47 0.0 0.0 0.00 0.00 0.04 17 1024.1
20260506115206 47 0.0 0.0 0.00 0.00 0.04 17 1024.1
20260506113206 47 0.0 0.0 0.00 0.00 0.04 17 1022.0
20260506112205 47 0.0 0.0 0.00 0.00 0.04 17 1022.0
20260506111205 47 0.0 0.0 0.00 0.00 0.04 17 1023.0
20260506110205 47 0.0 0.0 0.00 0.00 0.04 17 1023.0
20260506105205 47 0.0 0.0 0.00 0.00 0.04 17 1023.0
20260506104205 47 0.0 0.0 0.00 0.00 0.04 17 1023.0
20260506103205 47 0.0 0.0 0.00 0.00 0.04 17 1023.0
20260506102205 47 0.0 0.0 0.00 0.00 0.04 17 1023.0
20260506101206 47 0.0 0.0 0.00 0.00 0.04 17 1023.0
20260506094204 47 0.0 0.0 0.00 0.00 0.04 17 1023.0
20260506093206 48 0.0 0.0 0.00 0.00 0.04 17 1023.0
20260506092205 48 0.0 0.0 0.00 0.00 0.04 17 1023.0
20260506091205 48 0.0 0.0 0.00 0.00 0.04 17 1021.9
20260506085206 48 0.0 0.0 0.00 0.00 0.04 17 1020.9
20260506084205 48 0.0 0.0 0.00 0.00 0.04 16 1020.8
20260506083205 49 0.0 0.0 0.00 0.00 0.04 16 1020.8
20260506081205 49 0.0 0.0 0.00 0.00 0.04 16 1021.8
20260506080206 49 0.0 0.0 0.00 0.00 0.04 16 1021.8
20260506073205 49 0.0 0.0 0.00 0.00 0.04 21 1021.8